Location: Poughquag
(41.6090°N, 73.6820°W)
Time: 12:51:13
(UTC-04:00)

Transit 4A - Pass Details

Date: 30 May 2020
Orbit: 866 x 978 km, 66.8° (Epoch: 06 July)

Event Time Altitude Azimuth Distance (km) Brightness Sun altitude
Rises 03:06:42 0° 224° (SW) 3,436 - -19.3°
Reaches altitude 10° 03:09:13 10° 229° (SW) 2,505 - -19.1°
Exits shadow 03:12:03 29° 243° (WSW) 1,556 8.6 -18.8°
Maximum altitude 03:14:51 52° 305° (NW) 1,079 8.2 -18.5°
Drops below altitude 10° 03:20:36 10° 22° (NNE) 2,561 11.4 -17.9°
Sets 03:23:13 0° 27° (NNE) 3,519 12.6 -17.6°
